Location: Dulzura
(32.6442°N, 116.7814°W)
Time: 14:31:28
(UTC+00:00)

ATLAS 3B R/B - Pass Details

Date: 07 December 2021
Orbit: 994 x 1201 km, 63.8° (Epoch: 11 January)

Event Time Altitude Azimuth Distance (km) Brightness Sun altitude
Rises 14:02:20 0° 239° (WSW) 3,708 5.2 -7.4°
Reaches altitude 10° 14:05:14 10° 250° (WSW) 2,774 4.5 -6.8°
Maximum altitude 14:10:51 30° 310° (NW) 1,748 3.4 -5.7°
Drops below altitude 10° 14:16:41 10° 10° (N) 2,880 4.8 -4.6°
Sets 14:19:46 0° 21° (NNE) 3,872 5.6 -4.0°
